Temperature
28 28 28 28 29 29 29 29 28 27 27 28 29 29 28 28 27 26 25 24 23 22 21 20 19 19 18 18 17 16 16 15 15 14 14 13 13 12 12 12 12 11 11 11
28 29 29 29 30 30 30 30 30 29 29 29 29 29 28 28 27 26 25 24 23 22 21 20 19 19 18 17 17 16 15 15 15 14 14 13 13 12 12 12 12 11 11 11
27 29 29 28 30 30 30 30 30 29 29 29 29 28 28 27 27 26 25 24 24 22 21 20 19 19 18 17 17 16 16 15 15 14 14 13 13 13 12 12 12 11 11 11
27 27 26 28 30 30 30 30 30 30 30 29 29 28 27 27 26 26 25 24 23 22 21 20 19 19 18 17 17 16 16 15 15 14 14 13 13 12 12 12 12 11 11 11
27 26 27 28 28 28 28 28 30 30 30 29 29 28 27 26 26 25 25 24 23 22 22 21 20 19 18 17 17 17 16 16 15 14 14 13 13 12 12 12 12 11 11 11
27 26 25 26 27 27 27 26 28 29 28 28 28 27 27 26 25 25 24 23 23 22 21 20 20 19 18 17 17 17 16 16 15 14 14 13 13 13 12 12 12 11 11 11
26 26 26 26 26 26 24 24 26 27 27 27 27 26 26 25 25 24 23 23 22 22 21 20 19 19 18 17 17 16 16 15 15 14 14 14 13 13 12 12 12 12 11 11
25 24 24 24 25 23 22 23 25 26 27 26 26 26 25 25 24 23 23 22 22 21 20 20 19 18 18 17 17 16 16 15 15 14 14 14 13 13 12 12 12 12 11 11
25 23 22 21 22 22 23 23 24 25 26 26 25 25 25 24 24 23 23 22 21 21 20 19 18 18 17 17 17 16 16 15 15 15 14 14 13 13 12 12 12 12 12 12
25 23 22 22 22 23 23 23 24 25 25 25 25 25 24 23 23 22 22 21 21 20 19 19 18 18 17 17 16 16 16 15 15 14 14 14 13 13 13 13 13 12 12 12
24 24 23 22 22 23 23 23 24 24 24 24 24 23 23 22 22 21 21 21 20 20 19 19 18 17 17 17 16 16 15 15 14 14 14 14 14 14 14 13 13 13 12 12
24 23 23 22 22 22 23 23 23 22 22 22 22 22 21 21 20 20 20 20 19 19 19 18 18 17 17 16 16 15 15 14 14 14 14 14 14 14 14 14 13 13 12 12
23 23 23 23 22 22 23 22 22 21 21 21 20 20 20 19 19 19 19 18 18 18 17 17 17 16 16 16 15 15 14 14 14 14 14 14 14 14 14 14 13 13 13 12
22 22 22 22 22 21 21 21 21 20 20 19 19 19 18 18 18 18 17 17 17 17 16 16 16 15 15 15 15 14 14 14 14 13 14 14 14 14 14 13 13 13 13 12
21 21 21 21 21 20 20 20 20 19 19 18 18 17 17 17 17 16 16 16 16 16 15 15 15 14 14 14 13 13 13 13 13 13 13 13 14 14 13 13 13 13 13 12
20 20 20 20 19 19 19 19 18 18 18 17 17 17 16 16 16 15 15 15 15 14 14 14 13 13 13 13 13 13 13 13 13 13 13 13 13 13 13 13 13 13 13 12
19 19 19 18 18 18 17 17 17 17 17 16 16 16 16 15 15 14 14 14 14 13 13 13 12 12 12 12 12 12 12 12 13 13 13 13 13 13 13 13 13 13 12 12
17 17 17 17 17 16 16 16 16 16 16 16 16 15 15 14 14 14 13 13 13 13 12 12 12 12 11 11 11 11 11 12 12 12 13 13 13 13 13 13 13 12 12 12
16 16 16 16 16 16 16 15 15 15 15 15 15 14 14 14 13 13 13 12 12 12 12 11 11 11 11 11 11 11 11 11 12 12 12 12 12 12 12 12 12 12 12 12
16 15 15 15 15 15 15 15 15 14 14 14 14 14 13 13 13 12 12 12 12 12 11 11 11 11 10 10 10 10 10 11 11 11 12 12 12 12 12 12 12 12 12 11
15 15 15 15 15 14 14 14 14 14 14 14 13 13 13 12 12 12 12 12 11 11 11 11 11 10 10 9 9 9 10 10 10 11 11 11 12 11 11 11 11 11 11 11
15 14 14 14 14 14 13 13 13 13 13 13 13 12 12 12 12 12 12 11 11 11 10 10 10 10 9 9 9 9 9 10 10 10 10 10 11 11 11 11 11 11 10 10
14 14 13 13 13 13 13 13 13 13 13 12 12 12 12 12 11 11 11 11 11 11 10 10 10 9 9 9 8 9 9 9 9 9 9 9 10 10 10 10 10 10 10 10
13 13 13 13 13 12 12 13 13 12 12 12 12 12 12 12 12 12 11 11 11 10 10 10 9 9 9 8 8 8 8 8 8 8 8 9 9 9 9 9 9 9 10 10
12 12 12 12 12 12 12 12 12 12 12 12 12 12 12 12 11 11 11 11 10 10 10 9 9 9 8 8 8 7 7 7 7 7 7 8 8 8 8 9 9 9 9 9
12 12 12 12 12 12 12 12 12 12 12 12 12 12 12 11 11 11 11 10 10 10 9 9 8 8 8 7 7 7 7 6 6 6 7 7 7 7 8 8 8 8 9 9
12 12 12 12 12 12 12 12 12 12 12 11 11 11 11 11 11 10 10 10 9 9 9 8 8 7 7 6 6 6 6 5 5 6 6 6 6 6 7 7 7 8 8 8
Wind_Speed
10 11 12 12 11 10 10 9 8 6 6 7 6 7 7 7 8 9 10 10 9 8 8 7 6 5 4 3 2 1 1 3 3 3 3 4 5 6 6 6 8 7 7 7
14 13 13 13 11 10 10 10 8 6 2 6 6 6 6 5 6 8 9 10 10 9 9 8 6 5 4 4 3 3 3 4 3 3 4 5 5 6 6 6 6 7 7 8
13 13 14 12 10 9 8 8 7 5 3 7 6 6 6 6 6 7 9 9 9 10 9 8 7 6 5 4 4 4 4 4 4 4 5 5 7 6 6 6 7 7 8 8
12 12 14 8 4 5 5 5 5 3 5 6 5 5 6 7 7 7 7 8 8 9 10 10 8 8 6 5 5 5 4 4 4 4 5 5 5 6 6 6 7 7 8 9
11 12 11 8 5 5 5 5 4 3 2 3 4 4 6 9 9 7 6 6 7 8 9 8 9 8 7 5 5 4 4 3 4 4 5 5 6 6 6 6 7 8 8 9
11 12 10 4 2 3 5 4 5 2 4 2 0 2 2 9 9 8 7 7 7 8 7 8 7 6 6 5 4 4 3 3 3 4 5 6 7 7 7 6 7 9 9 8
12 12 5 3 1 2 2 2 5 4 3 1 1 1 3 5 6 7 8 8 8 7 7 7 6 6 5 5 4 3 3 3 4 5 5 7 7 6 6 7 8 9 10 10
7 8 3 7 4 4 3 5 8 7 5 4 2 1 4 5 6 7 8 8 8 6 7 7 7 6 6 5 4 3 4 4 5 5 7 8 6 6 6 7 8 10 10 10
1 1 2 3 3 2 2 5 8 8 6 3 3 2 1 4 6 6 7 6 7 7 7 7 7 6 6 5 4 4 5 5 6 7 7 7 8 8 8 7 8 8 7 7
3 4 6 6 4 4 5 3 6 7 7 5 4 4 3 4 5 4 4 4 4 6 7 6 6 6 6 5 4 5 6 6 6 8 9 9 8 8 7 7 6 6 6 7
2 4 6 9 7 6 6 7 9 10 10 10 7 7 5 5 4 3 2 2 2 3 3 4 5 5 6 5 6 6 7 7 8 10 11 9 9 8 8 7 7 7 7 7
3 5 4 6 6 7 7 8 10 11 11 11 10 9 8 6 5 5 4 3 2 2 0 1 3 4 4 5 5 6 7 8 9 9 8 8 7 7 9 11 11 13 14 12
5 4 6 6 7 8 8 8 9 10 11 11 11 11 11 9 7 6 5 4 3 2 3 3 3 3 3 3 4 6 7 8 9 10 9 9 8 7 7 7 11 14 16 16
5 5 6 7 8 9 9 10 10 11 12 11 11 11 10 9 8 8 7 6 5 4 3 4 4 5 5 5 5 6 8 10 10 10 9 9 8 8 7 7 7 7 9 14
5 5 7 7 8 9 9 10 10 11 11 11 11 10 10 9 9 9 8 7 7 6 6 6 6 6 7 7 7 8 9 10 9 10 9 10 9 9 8 7 7 7 6 6
6 8 8 9 9 9 10 11 10 10 10 10 10 10 10 9 8 8 8 8 8 8 7 6 6 7 8 9 9 9 9 13 12 11 11 10 9 9 8 7 7 7 6 5
8 8 8 8 8 9 9 9 9 9 9 9 8 8 8 8 8 8 8 9 8 7 6 6 7 9 10 10 11 11 11 12 12 10 10 10 9 8 7 8 7 7 6 5
11 10 9 8 7 7 8 9 9 9 9 9 9 9 8 8 8 8 9 9 8 7 6 7 8 10 11 10 10 10 11 12 11 10 9 9 8 8 9 8 8 8 6 4
9 7 6 6 6 6 7 8 9 9 9 9 9 9 9 8 8 8 9 9 9 7 6 8 10 10 11 9 11 10 12 13 12 11 10 11 10 9 8 7 7 7 6 5
5 4 4 5 6 7 8 8 9 10 10 10 9 9 9 9 9 9 9 8 7 6 7 8 9 10 9 10 12 13 14 14 14 12 11 11 10 8 8 8 6 5 4 5
2 3 5 6 7 8 9 10 10 11 11 10 9 9 9 9 9 8 8 9 5 5 7 9 8 8 9 11 14 14 14 14 14 12 11 11 9 8 8 7 6 4 4 5
4 6 7 8 9 10 10 10 11 12 11 10 10 10 10 9 10 8 6 6 5 2 6 10 9 8 11 14 14 14 14 14 13 11 10 9 9 7 7 7 5 3 4 5
7 8 9 10 11 11 12 12 12 11 11 11 11 10 10 9 9 9 9 6 6 5 8 9 7 7 11 12 13 13 13 13 13 12 10 9 8 6 6 7 5 3 3 4
9 9 10 11 12 13 13 13 12 10 11 12 11 10 8 9 8 8 7 6 5 5 9 5 4 8 10 10 11 11 11 11 11 10 10 10 8 7 6 6 5 4 3 4
10 11 12 12 12 12 12 12 12 11 11 9 10 9 9 8 8 9 9 11 10 9 10 6 4 6 8 10 10 11 11 10 10 11 11 10 9 7 5 5 5 5 5 4
10 10 10 10 11 10 12 11 11 10 9 10 10 9 9 8 9 9 9 11 13 9 9 8 6 7 8 9 10 11 11 10 10 9 10 10 10 8 5 5 6 5 5 5
11 10 8 10 10 10 9 9 10 11 10 10 10 10 11 11 11 10 11 11 10 9 8 8 7 7 8 8 9 9 9 9 9 9 9 9 9 7 5 5 5 5 6 5
Wind_Direction
274 258 247 252 254 252 255 264 270 247 223 207 184 160 156 160 164 164 158 160 158 153 147 152 154 161 183 198 189 186 276 278 281 284 285 284 284 286 286 288 291 292 292 288
289 283 282 276 265 261 263 264 263 259 231 132 140 150 151 163 176 175 172 175 168 163 157 160 168 176 182 189 184 187 229 263 273 276 276 278 280 279 282 285 288 287 285 287
284 292 293 283 279 267 266 261 258 253 185 152 169 161 158 168 188 187 181 178 171 165 160 162 170 172 180 189 196 206 220 245 258 265 274 278 290 297 297 294 288 284 282 283
276 280 277 280 277 278 270 270 268 216 169 171 163 162 161 167 182 187 183 175 163 163 162 167 169 173 181 201 203 214 225 239 253 265 279 286 287 289 289 288 286 285 284 283
269 272 274 286 311 319 304 275 270 249 158 146 149 180 180 165 167 175 180 159 152 167 171 166 172 175 178 204 218 227 238 242 260 272 282 285 285 287 290 287 286 284 285 281
259 268 277 282 322 360 336 301 353 45 77 48 153 269 143 148 163 171 160 148 158 172 165 158 168 168 177 204 222 238 252 258 265 265 270 277 279 279 281 281 283 285 285 285
258 270 276 3 91 136 262 12 353 31 69 14 333 55 122 156 161 156 150 160 169 171 162 157 160 163 184 213 229 242 262 267 266 263 263 263 263 264 270 277 283 285 285 283
255 277 298 13 19 57 45 332 325 347 8 5 8 219 185 166 147 157 162 172 172 167 163 159 162 171 193 213 224 239 252 261 265 266 274 282 279 274 269 271 278 278 276 276
145 173 117 31 9 75 44 337 329 324 338 343 318 298 170 136 141 162 164 171 173 168 170 166 168 179 203 209 214 236 251 260 265 269 266 268 269 270 268 263 268 277 285 290
325 112 121 110 79 46 44 359 328 338 357 0 359 7 46 93 117 134 154 161 168 170 177 179 180 187 202 207 212 233 248 259 265 267 265 261 253 259 265 271 275 285 292 298
295 87 91 65 45 31 13 8 7 11 13 15 21 27 45 64 86 111 124 140 154 156 177 185 185 195 208 214 217 235 249 257 266 268 268 265 260 251 254 256 261 262 277 286
63 45 52 62 37 26 21 32 29 25 27 29 28 31 42 52 60 62 63 59 67 72 241 230 215 222 225 219 220 234 253 260 269 274 277 277 277 274 249 244 247 241 241 250
53 38 56 53 41 31 30 39 45 45 39 36 36 37 37 36 40 42 42 36 35 26 356 334 312 298 291 275 254 246 257 267 275 281 285 289 287 284 284 270 247 243 244 244
54 58 62 55 51 39 36 41 49 52 44 40 37 36 36 33 31 33 29 23 20 6 343 330 315 309 313 311 295 283 276 274 271 272 273 274 277 279 280 282 285 279 252 237
67 81 86 73 60 52 45 44 45 44 41 40 40 35 33 30 29 25 17 12 3 348 346 341 338 341 339 328 317 306 294 285 279 281 282 282 282 283 284 286 286 286 284 250
105 92 86 77 61 49 44 43 40 35 33 32 29 26 22 21 19 16 9 2 352 343 341 345 351 347 339 328 317 305 293 285 281 283 284 284 283 283 286 285 283 285 287 286
98 86 74 65 57 45 38 32 27 21 16 15 9 8 8 7 4 4 356 349 342 335 343 4 5 352 336 326 319 311 306 301 289 281 279 280 280 283 283 285 287 288 285 285
82 77 69 55 42 32 22 16 10 6 360 353 352 355 354 352 353 351 343 339 332 329 358 13 6 342 328 327 326 317 309 304 302 297 291 287 288 288 287 287 292 293 288 275
83 76 63 46 27 13 3 357 351 348 343 340 339 342 340 337 342 340 336 330 321 325 359 1 350 332 324 344 341 319 310 306 303 300 297 292 287 282 281 284 288 292 295 297
75 56 30 11 2 354 345 343 340 335 331 328 328 327 325 328 332 328 325 317 325 348 349 344 332 320 329 352 341 320 309 304 301 299 297 297 295 295 290 290 292 296 298 296
29 2 350 342 341 337 337 336 328 320 319 320 318 317 321 323 318 315 310 312 336 2 335 323 317 332 344 338 319 312 307 304 302 301 300 296 297 298 297 298 298 296 292 289
341 332 328 327 327 326 326 321 314 311 313 313 315 317 316 310 306 305 301 301 313 8 330 323 327 349 340 323 314 310 308 306 306 305 304 306 308 309 307 298 290 294 298 296
324 322 318 316 315 313 311 308 305 307 311 311 308 305 302 304 301 300 300 308 324 341 322 322 333 329 319 314 312 311 312 315 314 312 312 309 310 316 311 301 298 310 309 306
311 308 307 308 307 305 300 299 303 303 297 292 288 285 286 289 290 293 305 314 311 307 310 312 298 306 303 310 315 317 321 321 321 322 319 316 319 321 321 320 323 330 316 316
298 299 298 297 296 296 300 302 298 289 286 289 295 299 297 301 307 312 314 312 310 300 306 311 307 301 307 318 322 325 324 326 328 323 317 318 318 317 325 332 331 327 326 328
287 285 287 290 291 290 290 290 294 302 308 309 307 307 309 311 310 308 307 309 314 317 311 313 320 316 322 328 328 328 326 326 326 325 331 333 328 327 335 342 334 333 333 335
292 289 283 281 289 295 303 307 308 309 310 311 313 314 311 309 308 309 310 312 317 317 317 319 320 322 327 329 328 327 328 329 329 334 339 336 331 328 337 342 341 337 336 344
Height
1468 1465 1465 1464 1461 1458 1460 1462 1469 1471 1470 1467 1464 1467 1471 1475 1479 1483 1488 1493 1497 1501 1504 1507 1509 1510 1511 1512 1512 1511 1511 1510 1509 1508 1507 1505 1503 1501 1499 1498 1496 1494 1491 1489
1467 1458 1456 1456 1453 1452 1454 1454 1456 1458 1461 1458 1462 1466 1470 1474 1478 1482 1486 1491 1494 1498 1501 1504 1506 1507 1508 1509 1509 1508 1508 1507 1506 1505 1504 1502 1500 1498 1496 1494 1492 1490 1487 1485
1471 1460 1458 1463 1451 1450 1451 1448 1451 1458 1458 1457 1461 1464 1469 1473 1477 1480 1484 1488 1491 1494 1497 1500 1502 1504 1505 1506 1506 1505 1505 1504 1503 1502 1501 1499 1497 1495 1493 1490 1488 1486 1483 1481
1468 1468 1480 1457 1442 1443 1446 1446 1446 1448 1451 1454 1458 1463 1467 1471 1475 1478 1481 1485 1488 1491 1494 1497 1499 1500 1501 1502 1503 1503 1502 1502 1501 1499 1498 1496 1494 1491 1489 1487 1484 1481 1479 1477
1468 1471 1466 1453 1447 1448 1452 1451 1445 1447 1449 1453 1456 1460 1463 1467 1472 1476 1479 1482 1485 1489 1491 1494 1495 1497 1498 1499 1499 1500 1499 1498 1497 1496 1494 1492 1490 1488 1485 1483 1480 1477 1475 1473
1464 1470 1475 1460 1451 1450 1454 1459 1449 1449 1452 1455 1458 1463 1463 1466 1470 1474 1477 1480 1483 1486 1488 1490 1492 1493 1494 1495 1496 1496 1496 1495 1493 1492 1490 1488 1486 1483 1481 1479 1476 1473 1470 1468
1463 1465 1459 1454 1452 1453 1470 1470 1457 1453 1455 1457 1458 1462 1465 1466 1469 1472 1475 1478 1480 1483 1485 1486 1488 1489 1490 1491 1492 1492 1492 1490 1489 1488 1486 1484 1482 1479 1477 1474 1472 1469 1466 1463
1462 1472 1472 1459 1456 1462 1468 1462 1459 1457 1456 1457 1459 1461 1463 1465 1467 1471 1473 1475 1477 1480 1482 1483 1484 1486 1486 1487 1488 1488 1487 1486 1485 1483 1482 1480 1478 1475 1472 1470 1467 1464 1461 1459
1456 1465 1463 1462 1463 1464 1463 1462 1461 1460 1458 1458 1459 1461 1462 1463 1465 1467 1470 1472 1474 1476 1478 1480 1481 1482 1483 1483 1484 1483 1483 1482 1480 1478 1476 1475 1473 1470 1468 1466 1463 1460 1458 1455
1453 1456 1459 1462 1464 1463 1462 1462 1461 1460 1459 1459 1459 1460 1461 1462 1463 1466 1468 1470 1472 1473 1475 1477 1478 1479 1479 1479 1479 1479 1478 1477 1475 1473 1471 1469 1468 1466 1463 1461 1459 1457 1454 1451
1453 1456 1460 1462 1462 1464 1464 1463 1461 1461 1460 1460 1460 1460 1461 1461 1463 1464 1466 1468 1470 1471 1473 1474 1475 1476 1476 1476 1475 1474 1473 1472 1470 1469 1467 1465 1463 1460 1458 1456 1454 1451 1449 1446
1456 1458 1458 1462 1463 1463 1463 1463 1463 1463 1462 1462 1462 1462 1463 1463 1464 1465 1465 1467 1468 1469 1470 1472 1472 1472 1472 1472 1471 1469 1468 1467 1466 1464 1462 1460 1458 1455 1452 1451 1448 1445 1443 1441
1456 1457 1459 1462 1463 1464 1464 1464 1465 1465 1465 1466 1465 1465 1465 1465 1465 1466 1466 1467 1468 1468 1469 1469 1470 1470 1469 1468 1466 1465 1463 1462 1460 1459 1457 1454 1452 1449 1447 1445 1442 1440 1437 1435
1459 1460 1462 1464 1465 1466 1466 1466 1467 1467 1468 1468 1468 1467 1467 1467 1467 1466 1467 1467 1467 1467 1467 1467 1467 1466 1465 1464 1462 1460 1458 1457 1455 1453 1451 1449 1446 1444 1442 1439 1436 1434 1432 1429
1461 1462 1464 1467 1468 1469 1469 1469 1469 1470 1470 1470 1470 1469 1469 1469 1468 1468 1468 1467 1467 1467 1466 1465 1464 1463 1461 1459 1457 1455 1453 1451 1449 1448 1446 1443 1441 1439 1436 1434 1431 1428 1426 1424
1463 1465 1467 1469 1471 1472 1472 1472 1472 1473 1472 1472 1472 1471 1471 1470 1470 1469 1468 1468 1467 1466 1464 1463 1461 1459 1457 1455 1453 1450 1448 1446 1444 1442 1440 1437 1435 1433 1431 1428 1426 1423 1421 1419
1465 1468 1470 1472 1473 1474 1475 1475 1475 1475 1474 1474 1473 1473 1472 1471 1470 1469 1468 1467 1466 1464 1462 1460 1458 1456 1454 1451 1449 1446 1444 1441 1439 1436 1434 1432 1430 1427 1425 1423 1421 1419 1416 1414
1470 1472 1474 1475 1476 1477 1477 1477 1476 1476 1475 1474 1474 1472 1471 1470 1470 1469 1467 1465 1464 1462 1460 1457 1455 1453 1451 1448 1445 1443 1440 1437 1435 1432 1429 1427 1424 1422 1420 1418 1416 1413 1411 1409
1473 1475 1476 1477 1478 1478 1478 1477 1477 1476 1475 1474 1473 1472 1470 1469 1468 1467 1465 1463 1461 1459 1457 1455 1453 1450 1448 1445 1442 1439 1436 1433 1430 1427 1424 1421 1419 1416 1414 1412 1410 1408 1406 1404
1476 1477 1478 1478 1478 1478 1478 1477 1476 1475 1474 1472 1471 1469 1468 1467 1466 1464 1463 1461 1458 1456 1454 1452 1450 1447 1445 1441 1438 1435 1432 1429 1425 1422 1419 1416 1413 1411 1408 1407 1405 1403 1401 1400
1477 1478 1478 1478 1478 1478 1477 1476 1474 1473 1471 1470 1468 1467 1465 1464 1463 1461 1459 1457 1455 1452 1451 1449 1447 1444 1440 1437 1434 1431 1427 1423 1420 1417 1414 1411 1408 1406 1403 1402 1400 1398 1397 1396
1478 1478 1478 1477 1477 1476 1475 1473 1472 1470 1468 1466 1465 1463 1462 1461 1459 1457 1455 1454 1451 1449 1447 1445 1443 1439 1436 1432 1429 1426 1422 1418 1415 1412 1409 1406 1403 1401 1399 1397 1395 1394 1393 1391
1477 1477 1476 1476 1475 1473 1472 1470 1468 1466 1464 1463 1461 1460 1459 1457 1455 1453 1451 1449 1447 1445 1443 1441 1438 1435 1431 1427 1424 1421 1417 1414 1410 1407 1404 1402 1399 1397 1395 1393 1391 1390 1389 1388
1476 1475 1474 1473 1471 1469 1467 1465 1464 1462 1460 1459 1457 1455 1454 1452 1450 1449 1447 1445 1443 1440 1438 1436 1432 1429 1426 1423 1420 1416 1413 1409 1406 1403 1400 1398 1395 1393 1391 1390 1388 1386 1385 1385
1473 1472 1471 1469 1467 1465 1463 1461 1459 1457 1455 1453 1452 1451 1449 1448 1447 1445 1443 1441 1439 1436 1434 1431 1427 1424 1422 1419 1415 1412 1409 1405 1402 1399 1396 1394 1391 1389 1388 1387 1385 1384 1383 1383
1469 1468 1466 1464 1463 1461 1459 1457 1455 1453 1451 1449 1448 1447 1445 1444 1442 1440 1438 1436 1434 1431 1429 1426 1423 1420 1417 1414 1411 1408 1404 1401 1398 1395 1392 1390 1388 1386 1385 1384 1382 1382 1381 1381
1464 1462 1460 1459 1457 1455 1454 1452 1451 1449 1448 1446 1444 1443 1441 1440 1438 1436 1434 1431 1429 1426 1424 1421 1418 1415 1413 1410 1407 1403 1400 1397 1394 1392 1389 1386 1384 1383 1382 1381 1380 1379 1379 1379